QFA141 YSSY-NZAA

Flight info

Callsign QFA141
Flight time 2h 36m
Altitude 35000
Route EVONN L521 LUNBI
Aircraft B738/M-SDE2E3FGHIRWXY/LB1

Departure

Time 2026-05-07 15:39
Airport Sydney Kingsford Smith International Airport (YSSY)

Arrival

Time 2026-05-07 18:16
Airport Auckland International Airport (NZAA)
Time Latitude Longitude Altitude Speed Heading
2026-05-07 15:21 -33.93141 151.17801 29 ft 0 kts 191°
2026-05-07 15:26 -33.93125 151.17806 29 ft 3 kts 195°
2026-05-07 15:26 -33.93106 151.17808 29 ft 1 kts 165°
2026-05-07 15:27 -33.93087 151.17803 29 ft 3 kts 189°
2026-05-07 15:27 -33.93070 151.17813 29 ft 3 kts 244°
2026-05-07 15:27 -33.93067 151.17836 29 ft 2 kts 279°
2026-05-07 15:27 -33.93067 151.17837 29 ft 0 kts 280°
2026-05-07 15:31 -33.93066 151.17830 29 ft 5 kts 280°
2026-05-07 15:31 -33.93059 151.17783 29 ft 10 kts 279°
2026-05-07 15:31 -33.93032 151.17704 29 ft 10 kts 297°
2026-05-07 15:31 -33.93008 151.17603 29 ft 15 kts 281°
2026-05-07 15:32 -33.93037 151.17542 29 ft 6 kts 209°
2026-05-07 15:32 -33.93102 151.17521 29 ft 14 kts 173°
2026-05-07 15:32 -33.93167 151.17537 29 ft 14 kts 167°
2026-05-07 15:32 -33.93261 151.17564 29 ft 14 kts 165°
2026-05-07 15:33 -33.93351 151.17587 29 ft 13 kts 173°
2026-05-07 15:33 -33.93440 151.17592 29 ft 13 kts 184°
2026-05-07 15:33 -33.93526 151.17596 29 ft 12 kts 167°
2026-05-07 15:33 -33.93609 151.17615 29 ft 12 kts 186°
2026-05-07 15:34 -33.93681 151.17567 28 ft 12 kts 200°
2026-05-07 15:34 -33.93760 151.17574 28 ft 11 kts 171°
2026-05-07 15:34 -33.93836 151.17596 28 ft 11 kts 161°
2026-05-07 15:34 -33.93863 151.17674 28 ft 12 kts 77°
2026-05-07 15:35 -33.93835 151.17786 29 ft 17 kts 71°
2026-05-07 15:35 -33.93800 151.17941 29 ft 20 kts 75°
2026-05-07 15:35 -33.93761 151.18101 29 ft 20 kts 75°
2026-05-07 15:35 -33.93726 151.18257 29 ft 19 kts 74°
2026-05-07 15:36 -33.93691 151.18408 29 ft 18 kts 76°
2026-05-07 15:36 -33.93656 151.18554 29 ft 18 kts 72°
2026-05-07 15:36 -33.93623 151.18694 29 ft 17 kts 75°
2026-05-07 15:36 -33.93592 151.18830 29 ft 16 kts 83°
2026-05-07 15:37 -33.93620 151.18920 28 ft 12 kts 137°
2026-05-07 15:37 -33.93649 151.18941 27 ft 1 kts 159°
2026-05-07 15:37 -33.93656 151.18944 27 ft 2 kts 159°
2026-05-07 15:37 -33.93677 151.18953 30 ft 5 kts 163°
2026-05-07 15:38 -33.93737 151.18955 25 ft 11 kts 202°
2026-05-07 15:38 -33.93778 151.18880 24 ft 11 kts 253°
2026-05-07 15:38 -33.93838 151.18641 26 ft 63 kts 253°
2026-05-07 15:38 -33.93979 151.18055 28 ft 82 kts 254°
2026-05-07 15:39 -33.94150 151.17339 27 ft 94 kts 254°
2026-05-07 15:39 -33.94375 151.16334 43 ft 156 kts 256°
2026-05-07 15:39 -33.94594 151.14950 732 ft 176 kts 262°
2026-05-07 15:39 -33.94806 151.13460 1701 ft 182 kts 253°
2026-05-07 15:40 -33.95118 151.11927 2444 ft 200 kts 253°
2026-05-07 15:40 -33.95404 151.10241 3057 ft 209 kts 254°
2026-05-07 15:40 -33.95686 151.08475 3442 ft 225 kts 254°
2026-05-07 15:40 -33.96184 151.06643 3843 ft 234 kts 234°
2026-05-07 15:41 -33.97390 151.05353 4496 ft 235 kts 204°
2026-05-07 15:41 -33.99001 151.05031 5220 ft 241 kts 176°
2026-05-07 15:41 -34.00586 151.05768 5908 ft 254 kts 150°
2026-05-07 15:41 -34.01834 151.07340 6533 ft 270 kts 127°
2026-05-07 15:42 -34.02547 151.09505 7162 ft 283 kts 110°
2026-05-07 15:42 -34.02997 151.11805 7786 ft 288 kts 109°
2026-05-07 15:42 -34.03424 151.14182 8430 ft 292 kts 109°
2026-05-07 15:42 -34.03851 151.16594 9066 ft 296 kts 109°
2026-05-07 15:43 -34.04287 151.19045 9694 ft 301 kts 109°
2026-05-07 15:43 -34.04731 151.21521 10276 ft 306 kts 109°
2026-05-07 15:43 -34.05206 151.24113 10423 ft 327 kts 109°
2026-05-07 15:43 -34.05711 151.26858 10596 ft 343 kts 109°
2026-05-07 15:44 -34.06235 151.29713 11017 ft 352 kts 109°
2026-05-07 15:44 -34.06764 151.32616 11583 ft 356 kts 108°
2026-05-07 15:44 -34.07297 151.35546 12184 ft 360 kts 108°
2026-05-07 15:44 -34.07838 151.38514 12750 ft 364 kts 108°
2026-05-07 15:45 -34.08386 151.41517 13358 ft 369 kts 108°
2026-05-07 15:45 -34.08942 151.44559 13967 ft 373 kts 108°
2026-05-07 15:45 -34.09504 151.47632 14511 ft 378 kts 108°
2026-05-07 15:45 -34.10074 151.50748 15060 ft 382 kts 108°
2026-05-07 15:46 -34.11228 151.57078 16183 ft 390 kts 108°
2026-05-07 15:46 -34.11813 151.60296 16731 ft 395 kts 108°
2026-05-07 15:46 -34.12396 151.63511 17308 ft 399 kts 108°
2026-05-07 15:47 -34.12992 151.66805 17841 ft 405 kts 108°
2026-05-07 15:47 -34.13596 151.70144 18395 ft 409 kts 108°
2026-05-07 15:47 -34.14204 151.73512 18878 ft 413 kts 108°
2026-05-07 15:47 -34.14819 151.76916 19335 ft 417 kts 108°
2026-05-07 15:48 -34.15439 151.80357 19793 ft 421 kts 108°
2026-05-07 15:48 -34.16062 151.83828 20258 ft 425 kts 108°
2026-05-07 15:48 -34.16690 151.87337 20715 ft 429 kts 108°
2026-05-07 15:48 -34.17323 151.90875 21162 ft 433 kts 108°
2026-05-07 15:49 -34.17960 151.94447 21618 ft 436 kts 108°
2026-05-07 15:49 -34.18604 151.98053 22021 ft 441 kts 108°
2026-05-07 15:49 -34.19253 152.01694 22444 ft 445 kts 108°
2026-05-07 15:49 -34.20025 152.05312 22887 ft 444 kts 114°
2026-05-07 15:50 -34.21008 152.08855 23327 ft 446 kts 116°
2026-05-07 15:50 -34.22064 152.12390 23729 ft 449 kts 117°
2026-05-07 15:50 -34.23149 152.15946 24073 ft 452 kts 117°
2026-05-07 15:50 -34.24233 152.19521 24429 ft 455 kts 116°
2026-05-07 15:51 -34.25313 152.23128 24801 ft 458 kts 116°
2026-05-07 15:51 -34.26389 152.26769 25141 ft 461 kts 116°
2026-05-07 15:51 -34.27446 152.30387 25454 ft 464 kts 116°
2026-05-07 15:51 -34.28520 152.34089 25786 ft 467 kts 116°
2026-05-07 15:52 -34.29593 152.37803 26119 ft 470 kts 115°
2026-05-07 15:52 -34.30673 152.41554 26432 ft 473 kts 115°
2026-05-07 15:52 -34.31758 152.45322 26746 ft 476 kts 115°
2026-05-07 15:52 -34.32847 152.49113 27066 ft 478 kts 115°
2026-05-07 15:53 -34.33940 152.52921 27398 ft 481 kts 115°
2026-05-07 15:53 -34.35042 152.56763 27665 ft 484 kts 115°
2026-05-07 15:53 -34.36149 152.60622 27945 ft 487 kts 115°
2026-05-07 15:53 -34.37262 152.64511 28247 ft 489 kts 115°
2026-05-07 15:54 -34.38377 152.68413 28540 ft 492 kts 115°
2026-05-07 15:54 -34.39495 152.72333 28783 ft 495 kts 115°
2026-05-07 15:54 -34.40621 152.76284 29063 ft 497 kts 115°
2026-05-07 15:54 -34.41751 152.80252 29335 ft 500 kts 115°
2026-05-07 15:55 -34.42883 152.84239 29625 ft 502 kts 115°
2026-05-07 15:55 -34.44020 152.88243 29890 ft 504 kts 115°
2026-05-07 15:55 -34.45160 152.92266 30127 ft 506 kts 115°
2026-05-07 15:55 -34.46303 152.96306 30335 ft 508 kts 115°
2026-05-07 15:56 -34.47450 153.00366 30556 ft 510 kts 114°
2026-05-07 15:56 -34.48599 153.04437 30779 ft 511 kts 114°
2026-05-07 15:56 -34.49746 153.08510 31058 ft 511 kts 114°
2026-05-07 15:56 -34.50892 153.12588 31371 ft 510 kts 114°
2026-05-07 15:57 -34.52032 153.16651 31693 ft 509 kts 114°
2026-05-07 15:57 -34.53170 153.20713 31965 ft 509 kts 114°
2026-05-07 15:57 -34.54308 153.24777 32208 ft 509 kts 114°
2026-05-07 15:57 -34.55449 153.28856 32460 ft 509 kts 113°
2026-05-07 15:58 -34.56583 153.32917 32726 ft 509 kts 113°
2026-05-07 15:58 -34.57716 153.36981 32963 ft 509 kts 113°
2026-05-07 15:58 -34.58851 153.41056 33179 ft 509 kts 113°
2026-05-07 15:58 -34.59969 153.45079 33470 ft 509 kts 113°
2026-05-07 15:59 -34.61100 153.49153 33761 ft 508 kts 113°
2026-05-07 15:59 -34.62227 153.53216 33984 ft 508 kts 113°
2026-05-07 15:59 -34.63368 153.57331 34181 ft 508 kts 112°
2026-05-07 15:59 -34.64478 153.61344 34346 ft 508 kts 112°
2026-05-07 16:00 -34.65604 153.65416 34504 ft 509 kts 112°
2026-05-07 16:00 -34.66730 153.69495 34696 ft 509 kts 112°
2026-05-07 16:00 -34.67852 153.73579 34880 ft 509 kts 112°
2026-05-07 16:00 -34.68986 153.77711 34994 ft 511 kts 112°
2026-05-07 16:01 -34.70099 153.81771 34983 ft 514 kts 112°
2026-05-07 16:01 -34.72371 153.90068 34970 ft 512 kts 112°
2026-05-07 16:02 -34.74594 153.98205 34973 ft 509 kts 112°
2026-05-07 16:02 -34.76813 154.06363 34992 ft 506 kts 112°
2026-05-07 16:03 -34.79023 154.14500 34968 ft 506 kts 112°
2026-05-07 16:03 -34.81223 154.22619 34963 ft 505 kts 112°
2026-05-07 16:04 -34.83418 154.30762 34961 ft 507 kts 112°
2026-05-07 16:04 -34.85614 154.38945 34967 ft 510 kts 112°
2026-05-07 16:05 -34.87818 154.47159 34953 ft 510 kts 112°
2026-05-07 16:05 -34.90023 154.55393 34935 ft 511 kts 112°
2026-05-07 16:06 -34.92219 154.63640 34934 ft 512 kts 112°
2026-05-07 16:06 -34.94414 154.71905 34937 ft 513 kts 112°
2026-05-07 16:07 -34.96604 154.80176 34924 ft 512 kts 112°
2026-05-07 16:07 -34.98782 154.88433 34911 ft 510 kts 112°
2026-05-07 16:08 -35.00952 154.96664 34920 ft 509 kts 112°
2026-05-07 16:08 -35.03107 155.04872 34914 ft 507 kts 112°
2026-05-07 16:09 -35.05247 155.13057 34910 ft 506 kts 112°
2026-05-07 16:09 -35.07381 155.21222 34917 ft 505 kts 112°
2026-05-07 16:10 -35.09502 155.29384 34904 ft 503 kts 112°
2026-05-07 16:10 -35.11613 155.37531 34891 ft 503 kts 112°
2026-05-07 16:11 -35.13716 155.45669 34892 ft 502 kts 112°
2026-05-07 16:11 -35.15811 155.53795 34886 ft 501 kts 112°
2026-05-07 16:12 -35.17900 155.61933 34918 ft 502 kts 112°
2026-05-07 16:12 -35.19991 155.70093 34883 ft 502 kts 112°
2026-05-07 16:13 -35.22062 155.78195 34875 ft 503 kts 112°
2026-05-07 16:13 -35.23803 155.85038 34876 ft 504 kts 112°
2026-05-07 16:14 -35.26220 155.94563 34890 ft 505 kts 112°
2026-05-07 16:14 -35.27958 156.01437 34866 ft 506 kts 112°
2026-05-07 16:15 -35.30038 156.09682 34857 ft 506 kts 112°
2026-05-07 16:15 -35.32108 156.17915 34844 ft 506 kts 112°
2026-05-07 16:16 -35.34159 156.26102 34873 ft 505 kts 112°
2026-05-07 16:16 -35.36211 156.34323 34840 ft 504 kts 112°
2026-05-07 16:17 -35.38249 156.42513 34824 ft 501 kts 112°
2026-05-07 16:17 -35.40271 156.50665 34826 ft 499 kts 112°
2026-05-07 16:18 -35.42280 156.58783 34845 ft 497 kts 111°
2026-05-07 16:18 -35.44280 156.66890 34825 ft 496 kts 111°
2026-05-07 16:19 -35.46269 156.74985 34822 ft 496 kts 111°
2026-05-07 16:19 -35.48258 156.83094 34811 ft 497 kts 111°
2026-05-07 16:20 -35.50244 156.91228 34818 ft 497 kts 110°
2026-05-07 16:20 -35.52229 156.99380 34809 ft 499 kts 110°
2026-05-07 16:21 -35.54216 157.07570 34803 ft 501 kts 110°
2026-05-07 16:21 -35.56206 157.15800 34789 ft 503 kts 110°
2026-05-07 16:22 -35.58196 157.24055 34806 ft 505 kts 109°
2026-05-07 16:22 -35.60187 157.32340 34777 ft 505 kts 109°
2026-05-07 16:23 -35.62169 157.40625 34783 ft 505 kts 109°
2026-05-07 16:23 -35.64146 157.48908 34763 ft 505 kts 109°
2026-05-07 16:24 -35.66117 157.57190 34768 ft 504 kts 108°
2026-05-07 16:24 -35.68081 157.65477 34756 ft 504 kts 108°
2026-05-07 16:25 -35.70032 157.73739 34759 ft 503 kts 108°
2026-05-07 16:25 -35.71975 157.81993 34748 ft 502 kts 108°
2026-05-07 16:26 -35.73897 157.90193 34751 ft 501 kts 107°
2026-05-07 16:26 -35.75826 157.98438 34742 ft 501 kts 107°
2026-05-07 16:27 -35.77748 158.06678 34738 ft 501 kts 107°
2026-05-07 16:27 -35.79400 158.15018 34734 ft 501 kts 102°
2026-05-07 16:28 -35.80799 158.23423 34719 ft 501 kts 102°
2026-05-07 16:28 -35.82183 158.31847 34727 ft 502 kts 102°
2026-05-07 16:29 -35.83600 158.40279 34728 ft 503 kts 102°
2026-05-07 16:29 -35.85033 158.48713 34725 ft 503 kts 102°
2026-05-07 16:30 -35.86465 158.57174 34722 ft 505 kts 102°
2026-05-07 16:30 -35.87891 158.65647 34712 ft 505 kts 102°
2026-05-07 16:31 -35.89314 158.74133 34707 ft 505 kts 102°
2026-05-07 16:31 -35.90732 158.82628 34707 ft 506 kts 102°
2026-05-07 16:32 -35.92144 158.91132 34716 ft 506 kts 101°
2026-05-07 16:32 -35.93549 158.99635 34689 ft 505 kts 101°
2026-05-07 16:33 -35.94936 159.08067 34695 ft 505 kts 101°
2026-05-07 16:33 -35.96334 159.16610 34688 ft 504 kts 101°
2026-05-07 16:34 -35.97716 159.25088 34690 ft 504 kts 100°
2026-05-07 16:34 -35.99082 159.33514 34679 ft 502 kts 100°
2026-05-07 16:35 -36.00445 159.41960 34680 ft 501 kts 100°
2026-05-07 16:35 -36.01800 159.50387 34681 ft 499 kts 100°
2026-05-07 16:36 -36.03147 159.58808 34673 ft 498 kts 99°
2026-05-07 16:36 -36.04483 159.67199 34669 ft 497 kts 99°
2026-05-07 16:37 -36.05809 159.75584 34673 ft 497 kts 99°
2026-05-07 16:37 -36.07133 159.83980 34672 ft 497 kts 99°
2026-05-07 16:38 -36.08449 159.92359 34680 ft 496 kts 97°
2026-05-07 16:38 -36.09758 160.00741 34670 ft 497 kts 97°
2026-05-07 16:39 -36.11061 160.09132 34670 ft 497 kts 97°
2026-05-07 16:39 -36.12361 160.17544 34664 ft 498 kts 97°
2026-05-07 16:40 -36.13649 160.25912 34669 ft 498 kts 96°
2026-05-07 16:40 -36.14937 160.34325 34664 ft 498 kts 96°
2026-05-07 16:41 -36.16222 160.42748 34658 ft 498 kts 96°
2026-05-07 16:41 -36.17502 160.51186 34660 ft 499 kts 96°
2026-05-07 16:42 -36.18775 160.59631 34654 ft 498 kts 95°
2026-05-07 16:42 -36.20046 160.68084 34653 ft 498 kts 95°
2026-05-07 16:43 -36.21309 160.76534 34655 ft 498 kts 95°
2026-05-07 16:43 -36.22554 160.84913 34653 ft 498 kts 95°
2026-05-07 16:44 -36.23802 160.93346 34651 ft 497 kts 94°
2026-05-07 16:44 -36.25042 161.01769 34648 ft 497 kts 94°
2026-05-07 16:45 -36.26272 161.10176 34647 ft 495 kts 94°
2026-05-07 16:45 -36.27494 161.18565 34650 ft 494 kts 94°
2026-05-07 16:46 -36.28708 161.26940 34652 ft 492 kts 93°
2026-05-07 16:46 -36.29911 161.35287 34645 ft 491 kts 93°
2026-05-07 16:47 -36.31106 161.43615 34649 ft 490 kts 93°
2026-05-07 16:47 -36.32291 161.51919 34654 ft 488 kts 93°
2026-05-07 16:48 -36.33466 161.60206 34617 ft 487 kts 92°
2026-05-07 16:48 -36.34635 161.68475 34636 ft 485 kts 92°
2026-05-07 16:49 -36.35794 161.76709 34647 ft 483 kts 92°
2026-05-07 16:49 -36.36942 161.84925 34650 ft 483 kts 92°
2026-05-07 16:50 -36.38085 161.93139 34645 ft 483 kts 92°
2026-05-07 16:50 -36.39214 162.01325 34643 ft 484 kts 92°
2026-05-07 16:51 -36.40349 162.09548 34647 ft 484 kts 92°
2026-05-07 16:51 -36.41477 162.17796 34645 ft 485 kts 92°
2026-05-07 16:52 -36.42599 162.26065 34603 ft 487 kts 92°
2026-05-07 16:52 -36.43723 162.34335 34639 ft 485 kts 92°
2026-05-07 16:53 -36.44839 162.42616 34645 ft 486 kts 91°
2026-05-07 16:53 -36.45946 162.50896 34643 ft 486 kts 91°
2026-05-07 16:54 -36.47049 162.59183 34641 ft 486 kts 91°
2026-05-07 16:54 -36.48145 162.67459 34615 ft 485 kts 91°
2026-05-07 16:55 -36.49237 162.75740 34631 ft 486 kts 91°
2026-05-07 16:55 -36.50329 162.84062 34643 ft 488 kts 91°
2026-05-07 16:56 -36.51230 162.90979 34638 ft 489 kts 91°
2026-05-07 16:56 -36.52854 163.03518 34634 ft 490 kts 91°
2026-05-07 16:57 -36.54102 163.13270 34641 ft 492 kts 91°
2026-05-07 16:57 -36.55000 163.20315 34639 ft 493 kts 91°
2026-05-07 16:58 -36.56068 163.28739 34638 ft 493 kts 91°
2026-05-07 16:58 -36.57131 163.37159 34633 ft 493 kts 90°
2026-05-07 16:59 -36.58188 163.45593 34640 ft 493 kts 90°
2026-05-07 16:59 -36.59238 163.54019 34642 ft 493 kts 90°
2026-05-07 17:00 -36.60276 163.62402 34643 ft 493 kts 90°
2026-05-07 17:00 -36.61315 163.70833 34645 ft 492 kts 90°
2026-05-07 17:01 -36.62344 163.79238 34645 ft 491 kts 90°
2026-05-07 17:01 -36.63368 163.87656 34650 ft 491 kts 90°
2026-05-07 17:02 -36.64382 163.96067 34656 ft 491 kts 90°
2026-05-07 17:02 -36.65393 164.04468 34629 ft 490 kts 90°
2026-05-07 17:03 -36.66395 164.12854 34648 ft 490 kts 90°
2026-05-07 17:03 -36.67390 164.21241 34660 ft 490 kts 90°
2026-05-07 17:04 -36.68383 164.29649 34664 ft 491 kts 90°
2026-05-07 17:04 -36.69370 164.38066 34631 ft 490 kts 90°
2026-05-07 17:05 -36.70352 164.46479 34659 ft 492 kts 90°
2026-05-07 17:05 -36.71329 164.54955 34675 ft 495 kts 90°
2026-05-07 17:06 -36.72305 164.63475 34673 ft 499 kts 90°
2026-05-07 17:06 -36.73286 164.72054 34644 ft 501 kts 90°
2026-05-07 17:07 -36.74261 164.80602 34665 ft 502 kts 90°
2026-05-07 17:07 -36.75234 164.89230 34672 ft 501 kts 90°
2026-05-07 17:08 -36.76198 164.97839 34681 ft 501 kts 90°
2026-05-07 17:08 -36.77156 165.06436 34673 ft 500 kts 90°
2026-05-07 17:09 -36.78104 165.15007 34678 ft 497 kts 90°
2026-05-07 17:09 -36.79043 165.23547 34679 ft 496 kts 90°
2026-05-07 17:10 -36.79972 165.32076 34673 ft 495 kts 90°
2026-05-07 17:10 -36.80894 165.40592 34687 ft 495 kts 90°
2026-05-07 17:11 -36.81809 165.49105 34689 ft 495 kts 90°
2026-05-07 17:11 -36.82713 165.57584 34694 ft 496 kts 90°
2026-05-07 17:12 -36.83619 165.66128 34695 ft 497 kts 90°
2026-05-07 17:12 -36.84522 165.74699 34700 ft 498 kts 90°
2026-05-07 17:13 -36.85421 165.83284 34696 ft 498 kts 91°
2026-05-07 17:13 -36.86315 165.91879 34707 ft 499 kts 90°
2026-05-07 17:14 -36.87202 166.00483 34711 ft 499 kts 90°
2026-05-07 17:14 -36.88084 166.09091 34716 ft 500 kts 90°
2026-05-07 17:15 -36.88960 166.17713 34700 ft 500 kts 91°
2026-05-07 17:15 -36.89830 166.26328 34719 ft 500 kts 91°
2026-05-07 17:16 -36.90692 166.34936 34720 ft 499 kts 91°
2026-05-07 17:16 -36.91547 166.43522 34723 ft 498 kts 91°
2026-05-07 17:17 -36.92389 166.52042 34694 ft 497 kts 91°
2026-05-07 17:17 -36.93225 166.60603 34722 ft 496 kts 91°
2026-05-07 17:18 -36.94055 166.69150 34733 ft 495 kts 91°
2026-05-07 17:18 -36.94879 166.77701 34734 ft 495 kts 91°
2026-05-07 17:19 -36.95697 166.86246 34738 ft 495 kts 91°
2026-05-07 17:19 -36.96508 166.94784 34744 ft 494 kts 91°
2026-05-07 17:20 -36.97313 167.03324 34748 ft 495 kts 91°
2026-05-07 17:20 -36.98114 167.11884 34750 ft 496 kts 91°
2026-05-07 17:21 -36.98910 167.20459 34752 ft 497 kts 91°
2026-05-07 17:21 -36.99700 167.29045 34753 ft 497 kts 92°
2026-05-07 17:22 -37.00487 167.37650 34764 ft 498 kts 92°
2026-05-07 17:22 -37.01264 167.46251 34768 ft 498 kts 92°
2026-05-07 17:23 -37.02036 167.54861 34772 ft 498 kts 92°
2026-05-07 17:23 -37.02800 167.63430 34765 ft 498 kts 92°
2026-05-07 17:24 -37.03562 167.72049 34780 ft 498 kts 92°
2026-05-07 17:24 -37.04316 167.80650 34778 ft 497 kts 92°
2026-05-07 17:25 -37.05063 167.89237 34780 ft 495 kts 92°
2026-05-07 17:25 -37.05804 167.97789 34770 ft 494 kts 92°
2026-05-07 17:26 -37.06533 168.06328 34790 ft 494 kts 92°
2026-05-07 17:26 -37.07250 168.14944 34807 ft 498 kts 92°
2026-05-07 17:27 -37.07966 168.23564 34793 ft 499 kts 92°
2026-05-07 17:27 -37.08684 168.32210 34818 ft 498 kts 92°
2026-05-07 17:28 -37.09400 168.40832 34800 ft 497 kts 92°
2026-05-07 17:28 -37.10102 168.49451 34813 ft 497 kts 92°
2026-05-07 17:29 -37.10814 168.58016 34827 ft 497 kts 92°
2026-05-07 17:29 -37.11504 168.66626 34824 ft 496 kts 92°
2026-05-07 17:30 -37.12186 168.75211 34828 ft 494 kts 92°
2026-05-07 17:30 -37.12855 168.83743 34817 ft 491 kts 92°
2026-05-07 17:31 -37.13532 168.92256 34830 ft 491 kts 93°
2026-05-07 17:31 -37.14200 169.00797 34834 ft 494 kts 92°
2026-05-07 17:32 -37.14844 169.09385 34842 ft 495 kts 92°
2026-05-07 17:32 -37.15378 169.16545 34856 ft 496 kts 92°
2026-05-07 17:33 -37.16123 169.26621 34842 ft 498 kts 92°
2026-05-07 17:33 -37.16771 169.35275 34854 ft 498 kts 92°
2026-05-07 17:34 -37.17414 169.43933 34838 ft 499 kts 92°
2026-05-07 17:34 -37.18046 169.52580 34853 ft 498 kts 92°
2026-05-07 17:35 -37.18668 169.61226 34866 ft 497 kts 92°
2026-05-07 17:35 -37.19283 169.69858 34863 ft 496 kts 92°
2026-05-07 17:36 -37.19893 169.78467 34867 ft 494 kts 92°
2026-05-07 17:36 -37.20491 169.87037 34871 ft 493 kts 92°
2026-05-07 17:37 -37.21084 169.95588 34875 ft 491 kts 92°
2026-05-07 17:37 -37.21669 170.04126 34884 ft 491 kts 92°
2026-05-07 17:38 -37.22246 170.12659 34889 ft 490 kts 92°
2026-05-07 17:38 -37.22818 170.21187 34886 ft 490 kts 92°
2026-05-07 17:39 -37.23383 170.29712 34883 ft 490 kts 92°
2026-05-07 17:39 -37.23941 170.38243 34905 ft 491 kts 92°
2026-05-07 17:40 -37.24403 170.45350 34899 ft 492 kts 92°
2026-05-07 17:40 -37.24953 170.53915 34889 ft 492 kts 92°
2026-05-07 17:41 -37.25499 170.62490 34913 ft 492 kts 92°
2026-05-07 17:41 -37.25792 170.71054 34914 ft 490 kts 85°
2026-05-07 17:42 -37.25495 170.79587 34929 ft 489 kts 83°
2026-05-07 17:42 -37.25125 170.88119 34919 ft 490 kts 83°
2026-05-07 17:43 -37.24824 170.96662 34927 ft 489 kts 84°
2026-05-07 17:43 -37.24563 171.05197 34930 ft 489 kts 84°
2026-05-07 17:44 -37.24310 171.13725 34937 ft 489 kts 84°
2026-05-07 17:44 -37.24050 171.22246 34947 ft 488 kts 84°
2026-05-07 17:45 -37.23782 171.30705 34932 ft 488 kts 84°
2026-05-07 17:45 -37.23505 171.39217 34953 ft 487 kts 84°
2026-05-07 17:46 -37.23221 171.47707 34953 ft 487 kts 84°
2026-05-07 17:46 -37.22936 171.56140 34921 ft 475 kts 84°
2026-05-07 17:47 -37.22797 171.60255 34606 ft 469 kts 84°
2026-05-07 17:47 -37.22656 171.64314 34302 ft 463 kts 83°
2026-05-07 17:47 -37.22513 171.68351 33921 ft 460 kts 83°
2026-05-07 17:47 -37.22370 171.72347 33516 ft 457 kts 83°
2026-05-07 17:48 -37.22227 171.76320 33120 ft 454 kts 83°
2026-05-07 17:48 -37.22085 171.80261 32734 ft 450 kts 83°
2026-05-07 17:48 -37.21941 171.84168 32362 ft 447 kts 83°
2026-05-07 17:48 -37.21798 171.88051 31989 ft 444 kts 83°
2026-05-07 17:49 -37.21654 171.91910 31625 ft 441 kts 83°
2026-05-07 17:49 -37.21509 171.95734 31263 ft 438 kts 83°
2026-05-07 17:49 -37.21365 171.99548 30900 ft 436 kts 82°
2026-05-07 17:49 -37.21220 172.03339 30522 ft 434 kts 82°
2026-05-07 17:50 -37.21074 172.07105 30162 ft 432 kts 82°
2026-05-07 17:50 -37.20927 172.10863 29732 ft 430 kts 82°
2026-05-07 17:50 -37.20780 172.14602 29339 ft 428 kts 82°
2026-05-07 17:50 -37.20635 172.18267 28954 ft 425 kts 82°
2026-05-07 17:51 -37.20486 172.22006 28568 ft 422 kts 82°
2026-05-07 17:51 -37.20342 172.25624 28198 ft 420 kts 82°
2026-05-07 17:51 -37.20194 172.29269 27822 ft 417 kts 82°
2026-05-07 17:51 -37.20046 172.32904 27450 ft 415 kts 82°
2026-05-07 17:52 -37.19899 172.36507 27077 ft 412 kts 82°
2026-05-07 17:52 -37.19751 172.40089 26710 ft 411 kts 82°
2026-05-07 17:52 -37.19603 172.43652 26334 ft 408 kts 82°
2026-05-07 17:52 -37.19454 172.47201 25973 ft 406 kts 82°
2026-05-07 17:53 -37.19305 172.50728 25609 ft 404 kts 82°
2026-05-07 17:53 -37.19156 172.54236 25234 ft 403 kts 82°
2026-05-07 17:53 -37.19006 172.57739 24872 ft 401 kts 83°
2026-05-07 17:53 -37.18855 172.61226 24487 ft 400 kts 83°
2026-05-07 17:54 -37.18704 172.64708 24122 ft 399 kts 83°
2026-05-07 17:54 -37.18552 172.68177 23746 ft 398 kts 83°
2026-05-07 17:54 -37.18400 172.71639 23352 ft 397 kts 83°
2026-05-07 17:54 -37.18247 172.75085 22963 ft 395 kts 83°
2026-05-07 17:55 -37.18094 172.78516 22582 ft 392 kts 83°
2026-05-07 17:55 -37.17941 172.81931 22209 ft 390 kts 83°
2026-05-07 17:55 -37.17789 172.85311 21850 ft 387 kts 83°
2026-05-07 17:55 -37.17637 172.88665 21507 ft 385 kts 83°
2026-05-07 17:56 -37.17484 172.92004 21156 ft 382 kts 83°
2026-05-07 17:56 -37.17331 172.95320 20805 ft 380 kts 83°
2026-05-07 17:56 -37.17181 172.98576 20459 ft 378 kts 83°
2026-05-07 17:56 -37.17029 173.01852 20119 ft 375 kts 83°
2026-05-07 17:57 -37.16876 173.05113 19771 ft 373 kts 82°
2026-05-07 17:57 -37.16772 173.07305 19540 ft 372 kts 82°
2026-05-07 17:57 -37.16570 173.11572 19086 ft 369 kts 82°
2026-05-07 17:57 -37.16418 173.14779 18734 ft 368 kts 82°
2026-05-07 17:58 -37.16265 173.17969 18395 ft 366 kts 83°
2026-05-07 17:58 -37.16112 173.21144 18021 ft 363 kts 82°
2026-05-07 17:58 -37.15960 173.24294 17655 ft 361 kts 82°
2026-05-07 17:58 -37.15807 173.27429 17301 ft 359 kts 82°
2026-05-07 17:59 -37.15655 173.30532 16957 ft 356 kts 82°
2026-05-07 17:59 -37.15503 173.33619 16625 ft 353 kts 82°
2026-05-07 17:59 -37.15352 173.36675 16293 ft 350 kts 82°
2026-05-07 17:59 -37.15201 173.39713 15962 ft 348 kts 82°
2026-05-07 18:00 -37.15050 173.42727 15634 ft 345 kts 82°
2026-05-07 18:00 -37.14898 173.45722 15309 ft 343 kts 82°
2026-05-07 18:00 -37.14727 173.48692 14990 ft 341 kts 81°
2026-05-07 18:00 -37.14549 173.51643 14672 ft 339 kts 81°
2026-05-07 18:01 -37.14371 173.54578 14338 ft 337 kts 81°
2026-05-07 18:01 -37.14194 173.57501 13976 ft 336 kts 81°
2026-05-07 18:01 -37.14018 173.60417 13600 ft 334 kts 81°
2026-05-07 18:01 -37.13844 173.63321 13227 ft 334 kts 82°
2026-05-07 18:02 -37.13496 173.69069 12564 ft 328 kts 81°
2026-05-07 18:02 -37.13325 173.71903 12287 ft 323 kts 81°
2026-05-07 18:02 -37.13154 173.74689 12029 ft 319 kts 81°
2026-05-07 18:03 -37.12985 173.77455 11732 ft 317 kts 81°
2026-05-07 18:03 -37.12817 173.80197 11430 ft 315 kts 81°
2026-05-07 18:03 -37.12650 173.82916 11125 ft 312 kts 81°
2026-05-07 18:03 -37.12483 173.85623 10823 ft 311 kts 81°
2026-05-07 18:04 -37.12314 173.88322 10518 ft 310 kts 81°
2026-05-07 18:04 -37.12145 173.91012 10172 ft 310 kts 81°
2026-05-07 18:04 -37.11978 173.93679 9974 ft 304 kts 81°
2026-05-07 18:04 -37.11816 173.96273 9891 ft 293 kts 81°
2026-05-07 18:05 -37.11654 173.98835 9407 ft 298 kts 81°
2026-05-07 18:05 -37.11490 174.01416 9069 ft 297 kts 81°
2026-05-07 18:05 -37.11328 174.03961 8773 ft 295 kts 81°
2026-05-07 18:05 -37.11164 174.06513 8487 ft 293 kts 81°
2026-05-07 18:06 -37.11002 174.09048 8197 ft 290 kts 81°
2026-05-07 18:06 -37.10840 174.11558 7912 ft 288 kts 81°
2026-05-07 18:06 -37.10678 174.14053 7628 ft 286 kts 81°
2026-05-07 18:06 -37.10519 174.16523 7345 ft 283 kts 81°
2026-05-07 18:07 -37.10360 174.18975 7065 ft 281 kts 81°
2026-05-07 18:07 -37.10203 174.21410 6788 ft 279 kts 81°
2026-05-07 18:07 -37.10047 174.23828 6520 ft 277 kts 81°
2026-05-07 18:07 -37.09893 174.26220 6229 ft 275 kts 81°
2026-05-07 18:08 -37.09737 174.28595 5950 ft 273 kts 81°
2026-05-07 18:08 -37.09581 174.30952 5667 ft 271 kts 82°
2026-05-07 18:08 -37.09427 174.33286 5423 ft 267 kts 81°
2026-05-07 18:08 -37.09273 174.35597 5151 ft 266 kts 81°
2026-05-07 18:09 -37.09120 174.37895 4919 ft 263 kts 81°
2026-05-07 18:09 -37.08971 174.40143 4806 ft 255 kts 81°
2026-05-07 18:09 -37.08825 174.42320 4678 ft 247 kts 81°
2026-05-07 18:09 -37.08683 174.44419 4568 ft 237 kts 80°
2026-05-07 18:10 -37.08545 174.46444 4469 ft 229 kts 80°
2026-05-07 18:10 -37.08412 174.48404 4284 ft 224 kts 80°
2026-05-07 18:10 -37.08280 174.50335 4099 ft 221 kts 79°
2026-05-07 18:10 -37.08156 174.52196 4042 ft 208 kts 79°
2026-05-07 18:11 -37.07976 174.53967 3805 ft 200 kts 70°
2026-05-07 18:11 -37.07716 174.55079 3629 ft 195 kts 65°
2026-05-07 18:11 -37.07128 174.57190 3307 ft 194 kts 64°
2026-05-07 18:11 -37.06681 174.58784 3034 ft 194 kts 64°
2026-05-07 18:12 -37.06247 174.60358 2795 ft 190 kts 64°
2026-05-07 18:12 -37.05816 174.61910 2544 ft 187 kts 63°
2026-05-07 18:12 -37.05394 174.63429 2300 ft 183 kts 64°
2026-05-07 18:12 -37.04980 174.64925 2042 ft 181 kts 64°
2026-05-07 18:13 -37.04582 174.66376 1826 ft 170 kts 64°
2026-05-07 18:13 -37.04208 174.67729 1581 ft 157 kts 65°
2026-05-07 18:13 -37.03849 174.69022 1375 ft 157 kts 64°
2026-05-07 18:13 -37.03504 174.70273 1167 ft 147 kts 66°
2026-05-07 18:14 -37.03177 174.71455 964 ft 144 kts 66°
2026-05-07 18:14 -37.02848 174.72645 792 ft 147 kts 67°
2026-05-07 18:14 -37.02512 174.73868 588 ft 149 kts 67°
2026-05-07 18:14 -37.02196 174.75091 359 ft 145 kts 68°
2026-05-07 18:15 -37.01850 174.76275 169 ft 146 kts 68°
2026-05-07 18:15 -37.01524 174.77485 38 ft 146 kts 67°
2026-05-07 18:15 -37.01219 174.78560 25 ft 110 kts 70°
2026-05-07 18:15 -37.01022 174.79280 27 ft 57 kts 71°
2026-05-07 18:16 -37.00930 174.79535 24 ft 19 kts 57°
2026-05-07 18:16 -37.00845 174.79655 25 ft 18 kts 40°
2026-05-07 18:16 -37.00773 174.79727 24 ft 4 kts 37°
2026-05-07 18:16 -37.00751 174.79728 27 ft 3 kts 340°
2026-05-07 18:17 -37.00726 174.79717 24 ft 5 kts 340°
2026-05-07 18:17 -37.00689 174.79700 28 ft 7 kts 340°
2026-05-07 18:17 -37.00650 174.79658 26 ft 9 kts 293°
2026-05-07 18:17 -37.00663 174.79576 24 ft 11 kts 253°
2026-05-07 18:18 -37.00689 174.79474 24 ft 13 kts 251°
2026-05-07 18:18 -37.00721 174.79356 24 ft 15 kts 251°
2026-05-07 18:18 -37.00757 174.79226 24 ft 8 kts 250°
2026-05-07 18:18 -37.00754 174.79164 30 ft 8 kts 321°
2026-05-07 18:19 -37.00712 174.79150 28 ft 1 kts 342°
2026-05-07 18:19 -37.00705 174.79147 24 ft 1 kts 342°
2026-05-07 18:19 -37.00703 174.79147 24 ft 0 kts 342°